Regional Weather Roundup
Issued by NWS State College, PA

Home | Current Version | Previous Version | Graphics & Text | Print | Product List | Glossary Off
Versions: 1 2 3 4 5 6 7 8 9 10 11 12 13 14 15 16 17 18 19 20 21 22 23 24 25 26 27 28 29 30 31 32 33 34 35 36 37 38 39 40 41 42 43 44 45 46 47 48 49 50

000
ASUS41 KCTP 051003
RWRCTP

REGIONAL WEATHER ROUNDUP
NATIONAL WEATHER SERVICE STATE COLLEGE PA
600 AM EDT SUN JUL 05 2015

Note: "fair" indicates few or no clouds below 12,000 feet with no
significant weather and/or obstructions to visibility.

* = STATION THAT DOES NOT REPORT PRECIPITATION /E.G. RAIN...SNOW...ETC/
    THUNDER OR FOG.

PAZ002>004-007>009-013>016-020>023-029>032-051100-
WESTERN PENNSYLVANIA

CITY           SKY/WX    TMP DP  RH WIND       PRES   REMARKS
ERIE           CLEAR     58  52  80 S5        30.11R
MEADVILLE      CLEAR     54  50  86 CALM      30.14R FOG
FRANKLIN*      MOCLDY    50  46  87 CALM      30.14S VSB 3/4
NEW CASTLE     FAIR      51  51 100 CALM      30.14R
BEAVER COUNTY  NOT AVBL
BUTLER*        MOCLDY    54  52  94 NE5       30.14R
PITTSBURGH INT CLOUDY    58  54  86 CALM      30.12R
PITTSBURGH     MOCLDY    61  53  75 NE3       30.11R
INDIANA*       PTCLDY    55  55 100 CALM      30.16R
LATROBE        NOT AVBL
WASHINGTON CO* NOT AVBL
$$

PAZ004>006-010>012-017>019-024>028-033>037-041-042-045-046-049>053-051100-
CENTRAL PENNSYLVANIA

CITY           SKY/WX    TMP DP  RH WIND       PRES   REMARKS
BRADFORD       CLEAR     48  45  89 CALM      30.15R
DUBOIS         PTCLDY    55  50  83 CALM      30.13R
CLEARFIELD     FOG       56  55  97 N6        30.14R VSB 1/4
JOHNSTOWN      PTCLDY    58  54  86 SW6       30.15R
ALTOONA        FOG       61  60  97 CALM      30.13R VSB 1/4
STATE COLLEGE  CLOUDY    63  63 100 CALM      30.12S FOG
WILLIAMSPORT   CLOUDY    63  61  93 CALM      30.10R FOG
SELINSGROVE    FOG       62  61  96 CALM      30.11R VSB 1/4
FT INDIANTOWN  FOG       57  57 100 CALM      30.10R VSB 1/2
CAPITAL CITY   FOG       62  61  96 CALM      30.10R VSB 1/4
HARRISBURG     FOG       63  62  97 W6        30.10R VSB<1/4
YORK           FOG       64  63  96 NW3       30.11R VSB 1/4
$$

PAZ038>040-043-044-047-048-054-055-060>062-067>071-051100-
EASTERN PENNSYLVANIA

CITY           SKY/WX    TMP DP  RH WIND       PRES   REMARKS
SCRANTON       CLOUDY    63  60  90 SW6       30.10R FOG
MOUNT POCONO   CLOUDY    60  58  92 W7        30.12R FOG
ALLENTOWN      PTCLDY    62  59  90 CALM      30.09R FOG
QUAKERTOWN*    MOSUNNY   61  61 100 CALM      30.10S
READING        FOG       63  61  93 CALM      30.09R VSB 1/2
LANCASTER      PTCLDY    63  62  97 CALM      30.09R FOG
COATESVILLE    MOSUNNY   63  63 100 CALM      30.11R FOG
POTTSTOWN      FOG       62  62 100 CALM      30.11R VSB 1/4
BLUE BELL      CLOUDY    64  63  94 CALM      30.08S
DOYLESTOWN     PTCLDY    64  62  93 CALM      30.08S
WILLOW GROVE   NOT AVBL
NORTH PHILA    CLEAR     64  57  78 CALM      30.10R
PHILADELPHIA   MOCLDY    68  60  75 CALM      30.09R
$$


USA.gov is the U.S. government's official web portal to all federal, state and local government web resources and services.